Time,TemperatureF,DewpointF,PressureIn,WindDirection,WindDirectionDegrees,WindSpeedMPH,WindSpeedGustMPH,Humidity,HourlyPrecipIn,Conditions,Clouds,dailyrainin,SoftwareType,DateUTC
2013-01-20 00:00:00,47.1,31.8,29.93,WNW,294,3.0,12.0,55,0.00,,---,0.00,VWS V14.01,2013-01-20 05:00:00,
2013-01-20 00:02:00,47.0,31.7,29.93,SSW,207,6.0,10.0,55,0.00,,---,0.00,VWS V14.01,2013-01-20 05:02:00,
2013-01-20 00:03:00,47.0,31.7,29.93,West,262,6.0,10.0,55,0.00,,---,0.00,VWS V14.01,2013-01-20 05:03:00,
2013-01-20 00:08:00,47.1,31.8,29.93,West,270,6.0,10.0,55,0.00,,---,0.00,VWS V14.01,2013-01-20 05:08:00,
2013-01-20 00:13:00,46.9,31.6,29.93,WSW,245,3.0,10.0,55,0.00,,---,0.00,VWS V14.01,2013-01-20 05:13:00,
2013-01-20 00:18:00,46.8,32.0,29.93,West,281,4.0,10.0,56,0.00,,---,0.00,VWS V14.01,2013-01-20 05:18:00,
2013-01-20 00:23:00,46.7,31.9,29.93,SW,222,3.0,10.0,56,0.00,,---,0.00,VWS V14.01,2013-01-20 05:23:00,
2013-01-20 00:28:00,46.6,31.8,29.93,WSW,258,3.0,10.0,56,0.00,,---,0.00,VWS V14.01,2013-01-20 05:28:00,
2013-01-20 00:30:00,46.6,32.2,29.93,West,263,1.0,10.0,57,0.00,,---,0.00,VWS V14.01,2013-01-20 05:30:00,
2013-01-20 00:33:00,46.5,32.1,29.93,SW,221,4.0,9.0,57,0.00,,---,0.00,VWS V14.01,2013-01-20 05:33:00,
2013-01-20 00:38:00,46.5,32.1,29.93,SW,221,4.0,12.0,57,0.00,,---,0.00,VWS V14.01,2013-01-20 05:38:00,
2013-01-20 00:43:00,46.6,32.2,29.93,West,274,5.0,12.0,57,0.00,,---,0.00,VWS V14.01,2013-01-20 05:43:00,
2013-01-20 00:48:00,46.5,32.5,29.93,SW,229,6.0,12.0,58,0.00,,---,0.00,VWS V14.01,2013-01-20 05:48:00,
2013-01-20 00:53:00,46.4,32.4,29.92,West,269,3.0,12.0,58,0.00,,---,0.00,VWS V14.01,2013-01-20 05:53:00,
2013-01-20 00:58:00,46.3,32.3,29.92,NW,311,2.0,12.0,58,0.00,,---,0.00,VWS V14.01,2013-01-20 05:58:00,
2013-01-20 01:00:00,46.2,32.7,29.92,WSW,257,2.0,12.0,59,0.00,,---,0.00,VWS V14.01,2013-01-20 06:00:00,
2013-01-20 01:03:00,46.2,32.7,29.92,West,266,2.0,5.0,59,0.00,,---,0.00,VWS V14.01,2013-01-20 06:03:00,
2013-01-20 01:08:00,46.1,32.6,29.92,West,277,3.0,10.0,59,0.00,,---,0.00,VWS V14.01,2013-01-20 06:08:00,
2013-01-20 01:13:00,46.1,33.0,29.92,South,183,2.0,10.0,60,0.00,,---,0.00,VWS V14.01,2013-01-20 06:13:00,
2013-01-20 01:18:00,46.0,33.3,29.92,West,266,4.0,10.0,61,0.00,,---,0.00,VWS V14.01,2013-01-20 06:18:00,
2013-01-20 01:23:00,46.0,33.3,29.92,West,276,2.0,10.0,61,0.00,,---,0.00,VWS V14.01,2013-01-20 06:23:00,
2013-01-20 01:28:00,46.0,33.3,29.93,West,269,5.0,13.0,61,0.00,,---,0.00,VWS V14.01,2013-01-20 06:28:00,
2013-01-20 01:30:00,46.1,33.4,29.93,WNW,290,5.0,13.0,61,0.00,,---,0.00,VWS V14.01,2013-01-20 06:30:00,
2013-01-20 01:33:00,46.1,33.4,29.93,WSW,238,5.0,7.0,61,0.00,,---,0.00,VWS V14.01,2013-01-20 06:33:00,
2013-01-20 01:38:00,46.0,33.7,29.93,West,263,1.0,13.0,62,0.00,,---,0.00,VWS V14.01,2013-01-20 06:38:00,
2013-01-20 01:43:00,45.9,33.6,29.93,WNW,286,8.0,13.0,62,0.00,,---,0.00,VWS V14.01,2013-01-20 06:43:00,
2013-01-20 01:48:00,46.0,34.1,29.93,West,266,6.0,13.0,63,0.00,,---,0.00,VWS V14.01,2013-01-20 06:48:00,
2013-01-20 01:53:00,46.0,34.1,29.93,West,267,3.0,13.0,63,0.00,,---,0.00,VWS V14.01,2013-01-20 06:53:00,
2013-01-20 01:58:00,45.8,33.9,29.93,West,274,5.0,13.0,63,0.00,,---,0.00,VWS V14.01,2013-01-20 06:58:00,
2013-01-20 02:00:00,45.8,34.3,29.93,NW,307,3.0,13.0,64,0.00,,---,0.00,VWS V14.01,2013-01-20 07:00:00,
2013-01-20 02:03:00,45.7,34.2,29.93,WSW,256,4.0,5.0,64,0.00,,---,0.00,VWS V14.01,2013-01-20 07:03:00,
2013-01-20 02:08:00,45.6,34.5,29.93,WNW,290,4.0,8.0,65,0.00,,---,0.00,VWS V14.01,2013-01-20 07:08:00,
2013-01-20 02:13:00,45.7,34.6,29.93,West,276,3.0,10.0,65,0.00,,---,0.00,VWS V14.01,2013-01-20 07:13:00,
2013-01-20 02:18:00,45.6,34.5,29.93,WSW,255,3.0,10.0,65,0.00,,---,0.00,VWS V14.01,2013-01-20 07:18:00,
2013-01-20 02:23:00,45.6,34.9,29.94,West,280,8.0,13.0,66,0.00,,---,0.00,VWS V14.01,2013-01-20 07:23:00,
2013-01-20 02:28:00,45.6,34.9,29.94,WNW,287,5.0,13.0,66,0.00,,---,0.00,VWS V14.01,2013-01-20 07:28:00,
2013-01-20 02:30:00,45.5,35.2,29.94,WNW,302,3.0,13.0,67,0.00,,---,0.00,VWS V14.01,2013-01-20 07:30:00,
2013-01-20 02:33:00,45.4,35.1,29.94,West,271,7.0,7.0,67,0.00,,---,0.00,VWS V14.01,2013-01-20 07:33:00,
2013-01-20 02:38:00,45.4,35.5,29.94,WNW,290,4.0,7.0,68,0.00,,---,0.00,VWS V14.01,2013-01-20 07:38:00,
2013-01-20 02:43:00,45.5,35.6,29.94,WNW,289,7.0,13.0,68,0.00,,---,0.00,VWS V14.01,2013-01-20 07:43:00,
2013-01-20 02:48:00,45.3,35.7,29.94,West,278,5.0,13.0,69,0.00,,---,0.00,VWS V14.01,2013-01-20 07:48:00,
2013-01-20 02:53:00,45.2,35.7,29.94,West,271,6.0,13.0,69,0.00,,---,0.00,VWS V14.01,2013-01-20 07:53:00,
2013-01-20 02:58:00,45.2,35.7,29.95,WSW,249,4.0,14.0,69,0.00,,---,0.00,VWS V14.01,2013-01-20 07:58:00,
2013-01-20 03:00:00,45.2,36.0,29.95,WNW,288,3.0,14.0,70,0.00,,---,0.00,VWS V14.01,2013-01-20 08:00:00,
2013-01-20 03:03:00,45.1,35.9,29.95,WNW,284,4.0,8.0,70,0.00,,---,0.00,VWS V14.01,2013-01-20 08:03:00,
2013-01-20 03:08:00,45.0,36.2,29.95,West,264,5.0,10.0,71,0.00,,---,0.00,VWS V14.01,2013-01-20 08:08:00,
2013-01-20 03:13:00,45.0,36.2,29.95,WNW,287,6.0,10.0,71,0.00,,---,0.00,VWS V14.01,2013-01-20 08:13:00,
2013-01-20 03:18:00,44.9,36.1,29.95,WSW,249,6.0,10.0,71,0.00,,---,0.00,VWS V14.01,2013-01-20 08:18:00,
2013-01-20 03:23:00,44.8,36.3,29.96,WNW,297,6.0,10.0,72,0.00,,---,0.00,VWS V14.01,2013-01-20 08:23:00,
2013-01-20 03:28:00,44.8,36.3,29.96,West,264,7.0,10.0,72,0.00,,---,0.00,VWS V14.01,2013-01-20 08:28:00,
2013-01-20 03:30:00,44.9,36.8,29.97,WNW,297,5.0,10.0,73,0.00,,---,0.00,VWS V14.01,2013-01-20 08:30:00,
2013-01-20 03:33:00,44.9,36.8,29.97,NW,309,4.0,7.0,73,0.00,,---,0.00,VWS V14.01,2013-01-20 08:33:00,
2013-01-20 03:38:00,44.9,36.8,29.97,WNW,284,11.0,11.0,73,0.00,,---,0.00,VWS V14.01,2013-01-20 08:38:00,
2013-01-20 03:43:00,45.0,36.9,29.97,WNW,285,8.0,13.0,73,0.00,,---,0.00,VWS V14.01,2013-01-20 08:43:00,
2013-01-20 03:48:00,45.0,36.9,29.97,West,278,7.0,15.0,73,0.00,,---,0.00,VWS V14.01,2013-01-20 08:48:00,
2013-01-20 03:53:00,45.0,36.9,29.97,West,264,9.0,15.0,73,0.00,,---,0.00,VWS V14.01,2013-01-20 08:53:00,
2013-01-20 03:58:00,44.9,36.8,29.98,West,269,7.0,15.0,73,0.00,,---,0.00,VWS V14.01,2013-01-20 08:58:00,
2013-01-20 04:00:00,44.8,36.7,29.98,WNW,294,5.0,15.0,73,0.00,,---,0.00,VWS V14.01,2013-01-20 09:00:00,
2013-01-20 04:03:00,44.8,36.7,29.98,West,267,4.0,8.0,73,0.00,,---,0.00,VWS V14.01,2013-01-20 09:03:00,
2013-01-20 04:08:00,44.8,36.7,29.98,WNW,302,5.0,12.0,73,0.00,,---,0.00,VWS V14.01,2013-01-20 09:08:00,
2013-01-20 04:13:00,44.7,36.6,29.98,WNW,282,5.0,12.0,73,0.00,,---,0.00,VWS V14.01,2013-01-20 09:13:00,
2013-01-20 04:18:00,44.4,35.6,29.99,West,269,5.0,14.0,71,0.00,,---,0.00,VWS V14.01,2013-01-20 09:18:00,
2013-01-20 04:23:00,44.0,35.2,29.99,WNW,290,6.0,14.0,71,0.00,,---,0.00,VWS V14.01,2013-01-20 09:23:00,
2013-01-20 04:28:00,43.7,34.9,29.99,WNW,291,7.0,17.0,71,0.00,,---,0.00,VWS V14.01,2013-01-20 09:28:00,
2013-01-20 04:30:00,43.5,34.7,29.99,WNW,293,9.0,17.0,71,0.00,,---,0.00,VWS V14.01,2013-01-20 09:30:00,
2013-01-20 04:33:00,43.4,34.6,29.99,West,266,8.0,10.0,71,0.00,,---,0.00,VWS V14.01,2013-01-20 09:33:00,
2013-01-20 04:38:00,43.1,34.3,30.00,WNW,289,10.0,15.0,71,0.00,,---,0.00,VWS V14.01,2013-01-20 09:38:00,
2013-01-20 04:43:00,42.9,34.5,30.00,WNW,288,4.0,15.0,72,0.00,,---,0.00,VWS V14.01,2013-01-20 09:43:00,
2013-01-20 04:48:00,42.7,34.3,30.00,WNW,282,11.0,18.0,72,0.00,,---,0.00,VWS V14.01,2013-01-20 09:48:00,
2013-01-20 04:53:00,42.5,34.1,30.00,NNW,336,4.0,18.0,72,0.00,,---,0.00,VWS V14.01,2013-01-20 09:53:00,
2013-01-20 04:58:00,42.4,33.7,30.00,West,276,7.0,18.0,71,0.00,,---,0.00,VWS V14.01,2013-01-20 09:58:00,
2013-01-20 05:00:00,42.4,34.0,30.00,West,265,4.0,18.0,72,0.00,,---,0.00,VWS V14.01,2013-01-20 10:00:00,
2013-01-20 05:03:00,42.4,34.0,30.00,WSW,237,2.0,5.0,72,0.00,,---,0.00,VWS V14.01,2013-01-20 10:03:00,
2013-01-20 05:08:00,42.3,33.9,30.00,WNW,297,3.0,11.0,72,0.00,,---,0.00,VWS V14.01,2013-01-20 10:08:00,
2013-01-20 05:13:00,42.2,33.8,30.01,West,277,3.0,11.0,72,0.00,,---,0.00,VWS V14.01,2013-01-20 10:13:00,
2013-01-20 05:18:00,42.0,33.3,30.01,NW,304,4.0,14.0,71,0.00,,---,0.00,VWS V14.01,2013-01-20 10:18:00,
2013-01-20 05:23:00,41.9,33.5,30.01,West,280,6.0,15.0,72,0.00,,---,0.00,VWS V14.01,2013-01-20 10:23:00,
2013-01-20 05:28:00,41.8,33.5,30.01,West,274,3.0,15.0,72,0.00,,---,0.00,VWS V14.01,2013-01-20 10:28:00,
2013-01-20 05:30:00,41.7,33.3,30.01,NW,312,5.0,15.0,72,0.00,,---,0.00,VWS V14.01,2013-01-20 10:30:00,
2013-01-20 05:33:00,41.7,33.7,30.02,NW,312,1.0,7.0,73,0.00,,---,0.00,VWS V14.01,2013-01-20 10:33:00,
2013-01-20 05:38:00,41.6,33.6,30.02,WSW,245,3.0,7.0,73,0.00,,---,0.00,VWS V14.01,2013-01-20 10:38:00,
2013-01-20 05:43:00,41.4,33.4,30.02,West,280,3.0,7.0,73,0.00,,---,0.00,VWS V14.01,2013-01-20 10:43:00,
2013-01-20 05:48:00,41.2,33.2,30.02,NW,325,2.0,8.0,73,0.00,,---,0.00,VWS V14.01,2013-01-20 10:48:00,
2013-01-20 05:53:00,40.7,32.4,30.03,West,270,3.0,8.0,72,0.00,,---,0.00,VWS V14.01,2013-01-20 10:53:00,
2013-01-20 05:58:00,40.2,31.2,30.03,WNW,289,4.0,11.0,70,0.00,,---,0.00,VWS V14.01,2013-01-20 10:58:00,
2013-01-20 06:00:00,39.7,30.0,30.03,WNW,293,5.0,13.0,68,0.00,,---,0.00,VWS V14.01,2013-01-20 11:00:00,
2013-01-20 06:03:00,39.5,29.8,30.03,WNW,289,5.0,8.0,68,0.00,,---,0.00,VWS V14.01,2013-01-20 11:03:00,
2013-01-20 06:08:00,38.7,27.2,30.03,WNW,284,4.0,15.0,63,0.00,,---,0.00,VWS V14.01,2013-01-20 11:08:00,
2013-01-20 06:13:00,38.1,26.2,30.04,NW,311,3.0,15.0,62,0.00,,---,0.00,VWS V14.01,2013-01-20 11:13:00,
2013-01-20 06:18:00,37.7,25.9,30.05,NW,308,2.0,15.0,62,0.00,,---,0.00,VWS V14.01,2013-01-20 11:18:00,
2013-01-20 06:23:00,37.1,24.5,30.05,North,357,7.0,15.0,60,0.00,,---,0.00,VWS V14.01,2013-01-20 11:23:00,
2013-01-20 06:28:00,36.6,23.6,30.05,NW,314,3.0,15.0,59,0.00,,---,0.00,VWS V14.01,2013-01-20 11:28:00,
2013-01-20 06:30:00,36.3,23.0,30.05,West,276,6.0,16.0,58,0.00,,---,0.00,VWS V14.01,2013-01-20 11:30:00,
2013-01-20 06:33:00,36.2,22.9,30.05,WNW,287,6.0,12.0,58,0.00,,---,0.00,VWS V14.01,2013-01-20 11:33:00,
2013-01-20 06:38:00,35.8,22.1,30.05,West,276,5.0,12.0,57,0.00,,---,0.00,VWS V14.01,2013-01-20 11:38:00,
2013-01-20 06:43:00,35.5,21.8,30.06,West,260,9.0,12.0,57,0.00,,---,0.00,VWS V14.01,2013-01-20 11:43:00,
2013-01-20 06:48:00,35.3,20.3,30.06,West,259,3.0,12.0,54,0.00,,---,0.00,VWS V14.01,2013-01-20 11:48:00,
2013-01-20 06:53:00,35.1,19.7,30.07,West,268,5.0,12.0,53,0.00,,---,0.00,VWS V14.01,2013-01-20 11:53:00,
2013-01-20 06:58:00,34.8,19.0,30.07,WNW,284,4.0,12.0,52,0.00,,---,0.00,VWS V14.01,2013-01-20 11:58:00,
2013-01-20 07:00:00,34.7,18.9,30.07,West,278,4.0,12.0,52,0.00,,---,0.00,VWS V14.01,2013-01-20 12:00:00,
2013-01-20 07:03:00,34.6,18.3,30.07,West,277,9.0,15.0,51,0.00,,---,0.00,VWS V14.01,2013-01-20 12:03:00,
2013-01-20 07:08:00,34.4,17.2,30.07,WNW,296,6.0,15.0,49,0.00,,---,0.00,VWS V14.01,2013-01-20 12:08:00,
2013-01-20 07:13:00,34.1,16.5,30.08,West,276,3.0,15.0,48,0.00,,---,0.00,VWS V14.01,2013-01-20 12:13:00,
2013-01-20 07:18:00,33.8,15.2,30.08,West,272,5.0,15.0,46,0.00,,---,0.00,VWS V14.01,2013-01-20 12:18:00,
2013-01-20 07:23:00,33.5,15.4,30.08,WNW,300,7.0,15.0,47,0.00,,---,0.00,VWS V14.01,2013-01-20 12:23:00,
2013-01-20 07:28:00,33.2,14.2,30.09,WNW,292,8.0,15.0,45,0.00,,---,0.00,VWS V14.01,2013-01-20 12:28:00,
2013-01-20 07:30:00,33.1,14.1,30.09,WNW,300,6.0,15.0,45,0.00,,---,0.00,VWS V14.01,2013-01-20 12:30:00,
2013-01-20 07:33:00,33.0,14.0,30.09,West,277,5.0,8.0,45,0.00,,---,0.00,VWS V14.01,2013-01-20 12:33:00,
2013-01-20 07:38:00,32.6,14.1,30.09,NW,304,4.0,10.0,46,0.00,,---,0.00,VWS V14.01,2013-01-20 12:38:00,
2013-01-20 07:43:00,32.3,13.9,30.10,NW,304,4.0,10.0,46,0.00,,---,0.00,VWS V14.01,2013-01-20 12:43:00,
2013-01-20 07:48:00,32.1,13.7,30.10,West,281,7.0,12.0,46,0.00,,---,0.00,VWS V14.01,2013-01-20 12:48:00,
2013-01-20 07:53:00,31.9,13.5,30.10,NW,307,7.0,12.0,46,0.00,,---,0.00,VWS V14.01,2013-01-20 12:53:00,
2013-01-20 07:58:00,31.8,13.9,30.11,WNW,285,4.0,14.0,47,0.00,,---,0.00,VWS V14.01,2013-01-20 12:58:00,
2013-01-20 08:00:00,31.7,13.3,30.11,WNW,302,8.0,14.0,46,0.00,,---,0.00,VWS V14.01,2013-01-20 13:00:00,
2013-01-20 08:03:00,31.6,13.2,30.11,WNW,287,10.0,12.0,46,0.00,,---,0.00,VWS V14.01,2013-01-20 13:03:00,
2013-01-20 08:08:00,31.4,12.0,30.11,WNW,284,4.0,12.0,44,0.00,,---,0.00,VWS V14.01,2013-01-20 13:08:00,
2013-01-20 08:13:00,31.3,11.9,30.11,West,271,6.0,13.0,44,0.00,,---,0.00,VWS V14.01,2013-01-20 13:13:00,
2013-01-20 08:18:00,31.2,12.8,30.12,WNW,295,6.0,13.0,46,0.00,,---,0.00,VWS V14.01,2013-01-20 13:18:00,
2013-01-20 08:23:00,31.2,11.8,30.12,NW,304,5.0,13.0,44,0.00,,---,0.00,VWS V14.01,2013-01-20 13:23:00,
2013-01-20 08:28:00,31.1,11.2,30.12,WNW,295,5.0,13.0,43,0.00,,---,0.00,VWS V14.01,2013-01-20 13:28:00,
2013-01-20 08:30:00,31.0,11.7,30.13,NW,314,6.0,13.0,44,0.00,,---,0.00,VWS V14.01,2013-01-20 13:30:00,
2013-01-20 08:33:00,31.0,11.7,30.13,West,266,4.0,10.0,44,0.00,,---,0.00,VWS V14.01,2013-01-20 13:33:00,
2013-01-20 08:38:00,31.0,12.2,30.13,WNW,300,2.0,10.0,45,0.00,,---,0.00,VWS V14.01,2013-01-20 13:38:00,
2013-01-20 08:43:00,31.0,12.2,30.14,NW,304,6.0,10.0,45,0.00,,---,0.00,VWS V14.01,2013-01-20 13:43:00,
2013-01-20 08:48:00,31.1,12.2,30.14,NW,323,3.0,10.0,45,0.00,,---,0.00,VWS V14.01,2013-01-20 13:48:00,
2013-01-20 08:53:00,31.1,12.2,30.14,WNW,300,6.0,10.0,45,0.00,,---,0.00,VWS V14.01,2013-01-20 13:53:00,
2013-01-20 08:58:00,31.0,12.7,30.15,NW,304,3.0,10.0,46,0.00,,---,0.00,VWS V14.01,2013-01-20 13:58:00,
2013-01-20 09:00:00,31.1,13.2,30.15,WNW,294,4.0,10.0,47,0.00,,---,0.00,VWS V14.01,2013-01-20 14:00:00,
2013-01-20 09:03:00,31.1,13.2,30.15,WNW,288,4.0,6.0,47,0.00,,---,0.00,VWS V14.01,2013-01-20 14:03:00,
2013-01-20 09:08:00,31.1,13.2,30.15,NW,316,3.0,6.0,47,0.00,,---,0.00,VWS V14.01,2013-01-20 14:08:00,
2013-01-20 09:13:00,31.1,13.2,30.16,WSW,255,8.0,10.0,47,0.00,,---,0.00,VWS V14.01,2013-01-20 14:13:00,
2013-01-20 09:18:00,31.1,13.2,30.16,WNW,291,5.0,10.0,47,0.00,,---,0.00,VWS V14.01,2013-01-20 14:18:00,
2013-01-20 09:23:00,31.0,13.1,30.17,SW,216,2.0,10.0,47,0.00,,---,0.00,VWS V14.01,2013-01-20 14:23:00,
2013-01-20 09:28:00,30.8,12.5,30.17,WNW,291,5.0,10.0,46,0.00,,---,0.00,VWS V14.01,2013-01-20 14:28:00,
2013-01-20 09:30:00,30.7,13.4,30.17,ENE,57,2.0,10.0,48,0.00,,---,0.00,VWS V14.01,2013-01-20 14:30:00,
2013-01-20 09:33:00,30.8,13.0,30.18,NW,304,2.0,6.0,47,0.00,,---,0.00,VWS V14.01,2013-01-20 14:33:00,
2013-01-20 09:38:00,30.8,13.4,30.18,NW,316,2.0,6.0,48,0.00,,---,0.00,VWS V14.01,2013-01-20 14:38:00,
2013-01-20 09:43:00,30.8,13.0,30.18,NW,316,4.0,7.0,47,0.00,,---,0.00,VWS V14.01,2013-01-20 14:43:00,
2013-01-20 09:48:00,30.9,13.5,30.18,SW,236,2.0,7.0,48,0.00,,---,0.00,VWS V14.01,2013-01-20 14:48:00,
2013-01-20 09:53:00,31.0,14.1,30.18,West,276,1.0,7.0,49,0.00,,---,0.00,VWS V14.01,2013-01-20 14:53:00,
2013-01-20 09:58:00,31.0,14.1,30.19,WNW,300,5.0,7.0,49,0.00,,---,0.00,VWS V14.01,2013-01-20 14:58:00,
2013-01-20 10:00:00,30.8,13.9,30.19,WNW,291,4.0,7.0,49,0.00,,---,0.00,VWS V14.01,2013-01-20 15:00:00,
2013-01-20 10:03:00,30.8,14.4,30.19,WNW,300,4.0,6.0,50,0.00,,---,0.00,VWS V14.01,2013-01-20 15:03:00,
2013-01-20 10:08:00,30.8,14.4,30.19,WNW,300,2.0,6.0,50,0.00,,---,0.00,VWS V14.01,2013-01-20 15:08:00,
2013-01-20 10:13:00,31.2,14.7,30.19,NNW,332,3.0,6.0,50,0.00,,---,0.00,VWS V14.01,2013-01-20 15:13:00,
2013-01-20 10:18:00,31.0,14.6,30.20,WNW,302,4.0,9.0,50,0.00,,---,0.00,VWS V14.01,2013-01-20 15:18:00,
2013-01-20 10:23:00,31.0,15.0,30.20,West,274,9.0,9.0,51,0.00,,---,0.00,VWS V14.01,2013-01-20 15:23:00,
2013-01-20 10:28:00,31.0,15.0,30.20,WNW,302,2.0,9.0,51,0.00,,---,0.00,VWS V14.01,2013-01-20 15:28:00,
2013-01-20 10:30:00,31.3,15.3,30.21,WNW,294,4.0,9.0,51,0.00,,---,0.00,VWS V14.01,2013-01-20 15:30:00,
2013-01-20 10:33:00,31.4,15.4,30.21,West,272,5.0,7.0,51,0.00,,---,0.00,VWS V14.01,2013-01-20 15:33:00,
2013-01-20 10:38:00,31.6,14.6,30.21,WNW,295,4.0,8.0,49,0.00,,---,0.00,VWS V14.01,2013-01-20 15:38:00,
2013-01-20 10:43:00,31.4,14.0,30.21,WNW,283,3.0,9.0,48,0.00,,---,0.00,VWS V14.01,2013-01-20 15:43:00,
2013-01-20 10:48:00,31.8,14.8,30.21,WNW,285,4.0,9.0,49,0.00,,---,0.00,VWS V14.01,2013-01-20 15:48:00,
2013-01-20 10:53:00,32.1,15.6,30.21,NW,318,2.0,9.0,50,0.00,,---,0.00,VWS V14.01,2013-01-20 15:53:00,
2013-01-20 10:58:00,32.1,14.6,30.22,West,266,11.0,13.0,48,0.00,,---,0.00,VWS V14.01,2013-01-20 15:58:00,
2013-01-20 11:00:00,31.7,13.3,30.22,SW,224,2.0,13.0,46,0.00,,---,0.00,VWS V14.01,2013-01-20 16:00:00,
2013-01-20 11:03:00,31.7,13.8,30.22,West,271,6.0,6.0,47,0.00,,---,0.00,VWS V14.01,2013-01-20 16:03:00,
2013-01-20 11:08:00,31.5,13.6,30.22,SW,222,2.0,10.0,47,0.00,,---,0.00,VWS V14.01,2013-01-20 16:08:00,
2013-01-20 11:13:00,31.4,14.0,30.22,West,262,3.0,10.0,48,0.00,,---,0.00,VWS V14.01,2013-01-20 16:13:00,
2013-01-20 11:18:00,31.3,14.4,30.22,West,278,3.0,10.0,49,0.00,,---,0.00,VWS V14.01,2013-01-20 16:18:00,
2013-01-20 11:23:00,31.4,14.9,30.22,NNW,328,7.0,10.0,50,0.00,,---,0.00,VWS V14.01,2013-01-20 16:23:00,
2013-01-20 11:28:00,31.6,14.6,30.22,WNW,295,2.0,10.0,49,0.00,,---,0.00,VWS V14.01,2013-01-20 16:28:00,
2013-01-20 11:30:00,31.8,15.3,30.22,WNW,288,1.0,10.0,50,0.00,,---,0.00,VWS V14.01,2013-01-20 16:30:00,
2013-01-20 11:33:00,32.2,16.1,30.22,NW,309,3.0,5.0,51,0.00,,---,0.00,VWS V14.01,2013-01-20 16:33:00,
2013-01-20 11:38:00,32.6,16.0,30.22,NNW,344,5.0,6.0,50,0.00,,---,0.00,VWS V14.01,2013-01-20 16:38:00,
2013-01-20 11:43:00,32.7,15.7,30.22,NW,315,5.0,6.0,49,0.00,,---,0.00,VWS V14.01,2013-01-20 16:43:00,
2013-01-20 11:48:00,32.3,15.8,30.22,WNW,290,1.0,7.0,50,0.00,,---,0.00,VWS V14.01,2013-01-20 16:48:00,
2013-01-20 11:53:00,32.6,16.5,30.22,West,269,2.0,7.0,51,0.00,,---,0.00,VWS V14.01,2013-01-20 16:53:00,
2013-01-20 11:58:00,32.6,16.9,30.21,WNW,301,1.0,7.0,52,0.00,,---,0.00,VWS V14.01,2013-01-20 16:58:00,
2013-01-20 12:00:00,32.4,15.9,30.22,NW,309,4.0,7.0,50,0.00,,---,0.00,VWS V14.01,2013-01-20 17:00:00,
2013-01-20 12:03:00,32.2,16.1,30.22,WNW,295,4.0,6.0,51,0.00,,---,0.00,VWS V14.01,2013-01-20 17:03:00,
2013-01-20 12:08:00,32.4,16.3,30.21,West,281,3.0,6.0,51,0.00,,---,0.00,VWS V14.01,2013-01-20 17:08:00,
2013-01-20 12:13:00,32.6,16.9,30.21,West,270,5.0,7.0,52,0.00,,---,0.00,VWS V14.01,2013-01-20 17:13:00,
2013-01-20 12:18:00,32.9,14.9,30.21,West,273,5.0,7.0,47,0.00,,---,0.00,VWS V14.01,2013-01-20 17:18:00,
2013-01-20 12:23:00,32.9,14.9,30.21,North,354,2.0,7.0,47,0.00,,---,0.00,VWS V14.01,2013-01-20 17:23:00,
2013-01-20 12:28:00,33.2,15.2,30.20,NNW,328,2.0,7.0,47,0.00,,---,0.00,VWS V14.01,2013-01-20 17:28:00,
2013-01-20 12:30:00,33.4,14.9,30.20,West,281,4.0,7.0,46,0.00,,---,0.00,VWS V14.01,2013-01-20 17:30:00,
2013-01-20 12:33:00,33.2,14.2,30.20,WNW,295,3.0,4.0,45,0.00,,---,0.00,VWS V14.01,2013-01-20 17:33:00,
2013-01-20 12:38:00,33.3,13.2,30.20,West,265,0.0,4.0,43,0.00,,---,0.00,VWS V14.01,2013-01-20 17:38:00,
2013-01-20 12:43:00,33.5,14.4,30.19,North,360,9.0,9.0,45,0.00,,---,0.00,VWS V14.01,2013-01-20 17:43:00,
2013-01-20 12:48:00,33.5,13.9,30.19,NNW,332,2.0,10.0,44,0.00,,---,0.00,VWS V14.01,2013-01-20 17:48:00,
2013-01-20 12:53:00,34.0,14.9,30.19,NNW,332,3.0,10.0,45,0.00,,---,0.00,VWS V14.01,2013-01-20 17:53:00,
2013-01-20 12:58:00,33.4,13.9,30.19,WNW,300,2.0,10.0,44,0.00,,---,0.00,VWS V14.01,2013-01-20 17:58:00,
2013-01-20 13:00:00,33.6,14.0,30.20,WNW,295,1.0,10.0,44,0.00,,---,0.00,VWS V14.01,2013-01-20 18:00:00,
2013-01-20 13:03:00,33.7,14.1,30.19,NW,305,3.0,7.0,44,0.00,,---,0.00,VWS V14.01,2013-01-20 18:03:00,
2013-01-20 13:08:00,33.7,14.6,30.19,West,266,2.0,7.0,45,0.00,,---,0.00,VWS V14.01,2013-01-20 18:08:00,
2013-01-20 13:13:00,33.7,14.6,30.19,NW,314,3.0,7.0,45,0.00,,---,0.00,VWS V14.01,2013-01-20 18:13:00,
2013-01-20 13:18:00,34.0,14.9,30.19,WNW,285,5.0,7.0,45,0.00,,---,0.00,VWS V14.01,2013-01-20 18:18:00,
2013-01-20 13:23:00,33.4,13.3,30.19,West,259,4.0,7.0,43,0.00,,---,0.00,VWS V14.01,2013-01-20 18:23:00,
2013-01-20 13:28:00,33.2,13.1,30.19,West,274,4.0,11.0,43,0.00,,---,0.00,VWS V14.01,2013-01-20 18:28:00,
2013-01-20 13:30:00,33.3,13.8,30.19,West,279,4.0,11.0,44,0.00,,---,0.00,VWS V14.01,2013-01-20 18:30:00,
2013-01-20 13:33:00,33.3,13.2,30.19,NW,306,6.0,8.0,43,0.00,,---,0.00,VWS V14.01,2013-01-20 18:33:00,
2013-01-20 13:38:00,33.5,13.9,30.19,West,274,3.0,8.0,44,0.00,,---,0.00,VWS V14.01,2013-01-20 18:38:00,
2013-01-20 13:43:00,33.8,14.2,30.19,West,268,1.0,8.0,44,0.00,,---,0.00,VWS V14.01,2013-01-20 18:43:00,
2013-01-20 13:48:00,34.3,15.2,30.18,WSW,243,4.0,8.0,45,0.00,,---,0.00,VWS V14.01,2013-01-20 18:48:00,
2013-01-20 13:53:00,34.1,15.0,30.18,NW,307,3.0,8.0,45,0.00,,---,0.00,VWS V14.01,2013-01-20 18:53:00,
2013-01-20 13:58:00,33.7,14.1,30.18,West,264,5.0,8.0,44,0.00,,---,0.00,VWS V14.01,2013-01-20 18:58:00,
2013-01-20 14:00:00,33.7,14.6,30.17,WNW,285,2.0,8.0,45,0.00,,---,0.00,VWS V14.01,2013-01-20 19:00:00,
2013-01-20 14:03:00,33.7,14.6,30.17,NW,319,1.0,4.0,45,0.00,,---,0.00,VWS V14.01,2013-01-20 19:03:00,
2013-01-20 14:08:00,33.9,15.3,30.17,NNE,29,2.0,5.0,46,0.00,,---,0.00,VWS V14.01,2013-01-20 19:08:00,
2013-01-20 14:13:00,34.1,15.0,30.17,NNW,332,3.0,5.0,45,0.00,,---,0.00,VWS V14.01,2013-01-20 19:13:00,
2013-01-20 14:18:00,34.5,16.9,30.18,West,269,3.0,9.0,48,0.00,,---,0.00,VWS V14.01,2013-01-20 19:18:00,
2013-01-20 14:23:00,34.4,15.8,30.18,NW,311,1.0,9.0,46,0.00,,---,0.00,VWS V14.01,2013-01-20 19:23:00,
2013-01-20 14:28:00,34.6,16.0,30.17,WNW,293,1.0,9.0,46,0.00,,---,0.00,VWS V14.01,2013-01-20 19:28:00,
2013-01-20 14:30:00,34.7,16.0,30.17,WNW,287,5.0,9.0,46,0.00,,---,0.00,VWS V14.01,2013-01-20 19:30:00,
2013-01-20 14:33:00,34.7,16.0,30.17,West,271,3.0,5.0,46,0.00,,---,0.00,VWS V14.01,2013-01-20 19:33:00,
2013-01-20 14:38:00,34.5,15.9,30.17,WNW,298,0.0,5.0,46,0.00,,---,0.00,VWS V14.01,2013-01-20 19:38:00,
2013-01-20 14:43:00,34.8,15.1,30.17,NW,325,3.0,5.0,44,0.00,,---,0.00,VWS V14.01,2013-01-20 19:43:00,
2013-01-20 14:48:00,34.3,14.7,30.17,West,260,2.0,6.0,44,0.00,,---,0.00,VWS V14.01,2013-01-20 19:48:00,
2013-01-20 14:53:00,34.3,14.7,30.17,West,272,4.0,8.0,44,0.00,,---,0.00,VWS V14.01,2013-01-20 19:53:00,
2013-01-20 14:58:00,34.2,15.6,30.17,SW,214,3.0,8.0,46,0.00,,---,0.00,VWS V14.01,2013-01-20 19:58:00,
2013-01-20 15:00:00,34.5,14.9,30.16,WNW,300,3.0,8.0,44,0.00,,---,0.00,VWS V14.01,2013-01-20 20:00:00,
2013-01-20 15:03:00,34.5,13.8,30.16,SW,228,2.0,5.0,42,0.00,,---,0.00,VWS V14.01,2013-01-20 20:03:00,
2013-01-20 15:08:00,34.3,12.5,30.16,NW,308,2.0,8.0,40,0.00,,---,0.00,VWS V14.01,2013-01-20 20:08:00,
2013-01-20 15:13:00,33.9,12.7,30.16,West,274,5.0,9.0,41,0.00,,---,0.00,VWS V14.01,2013-01-20 20:13:00,
2013-01-20 15:18:00,34.1,12.3,30.16,West,278,5.0,9.0,40,0.00,,---,0.00,VWS V14.01,2013-01-20 20:18:00,
2013-01-20 15:23:00,34.5,13.8,30.16,NW,319,3.0,9.0,42,0.00,,---,0.00,VWS V14.01,2013-01-20 20:23:00,
2013-01-20 15:28:00,34.7,12.9,30.16,WNW,298,4.0,9.0,40,0.00,,---,0.00,VWS V14.01,2013-01-20 20:28:00,
2013-01-20 15:30:00,34.5,11.5,30.17,West,269,1.0,9.0,38,0.00,,---,0.00,VWS V14.01,2013-01-20 20:30:00,
2013-01-20 15:33:00,34.4,11.4,30.17,West,269,2.0,3.0,38,0.00,,---,0.00,VWS V14.01,2013-01-20 20:33:00,
2013-01-20 15:38:00,34.6,13.3,30.17,WNW,285,4.0,5.0,41,0.00,,---,0.00,VWS V14.01,2013-01-20 20:38:00,
2013-01-20 15:43:00,34.6,12.2,30.17,West,274,4.0,6.0,39,0.00,,---,0.00,VWS V14.01,2013-01-20 20:43:00,
2013-01-20 15:48:00,34.3,11.9,30.17,WNW,289,4.0,9.0,39,0.00,,---,0.00,VWS V14.01,2013-01-20 20:48:00,
2013-01-20 15:53:00,33.8,11.5,30.17,West,271,2.0,9.0,39,0.00,,---,0.00,VWS V14.01,2013-01-20 20:53:00,
2013-01-20 15:58:00,33.7,12.0,30.17,West,274,4.0,9.0,40,0.00,,---,0.00,VWS V14.01,2013-01-20 20:58:00,
2013-01-20 16:00:00,33.6,10.7,30.17,West,278,3.0,9.0,38,0.00,,---,0.00,VWS V14.01,2013-01-20 21:00:00,
2013-01-20 16:03:00,33.6,11.9,30.17,West,281,2.0,3.0,40,0.00,,---,0.00,VWS V14.01,2013-01-20 21:03:00,
2013-01-20 16:08:00,33.7,13.1,30.17,West,276,3.0,6.0,42,0.00,,---,0.00,VWS V14.01,2013-01-20 21:08:00,
2013-01-20 16:13:00,33.8,12.6,30.17,WNW,291,4.0,6.0,41,0.00,,---,0.00,VWS V14.01,2013-01-20 21:13:00,
2013-01-20 16:18:00,33.7,13.1,30.17,WNW,302,4.0,6.0,42,0.00,,---,0.00,VWS V14.01,2013-01-20 21:18:00,
2013-01-20 16:23:00,33.6,13.0,30.17,WNW,293,1.0,6.0,42,0.00,,---,0.00,VWS V14.01,2013-01-20 21:23:00,
2013-01-20 16:28:00,33.6,13.5,30.17,NW,305,3.0,6.0,43,0.00,,---,0.00,VWS V14.01,2013-01-20 21:28:00,
2013-01-20 16:30:00,33.5,13.4,30.17,NW,316,3.0,6.0,43,0.00,,---,0.00,VWS V14.01,2013-01-20 21:30:00,
2013-01-20 16:33:00,33.4,13.3,30.17,WNW,296,1.0,2.0,43,0.00,,---,0.00,VWS V14.01,2013-01-20 21:33:00,
2013-01-20 16:38:00,33.4,12.8,30.17,WNW,285,4.0,5.0,42,0.00,,---,0.00,VWS V14.01,2013-01-20 21:38:00,
2013-01-20 16:43:00,33.4,13.3,30.18,NNW,333,3.0,5.0,43,0.00,,---,0.00,VWS V14.01,2013-01-20 21:43:00,
2013-01-20 16:48:00,33.5,13.9,30.17,WNW,283,1.0,5.0,44,0.00,,---,0.00,VWS V14.01,2013-01-20 21:48:00,
2013-01-20 16:53:00,33.4,12.8,30.18,West,278,3.0,8.0,42,0.00,,---,0.00,VWS V14.01,2013-01-20 21:53:00,
2013-01-20 16:58:00,33.4,13.3,30.18,WNW,297,4.0,8.0,43,0.00,,---,0.00,VWS V14.01,2013-01-20 21:58:00,
2013-01-20 17:00:00,33.2,13.1,30.18,WNW,284,1.0,8.0,43,0.00,,---,0.00,VWS V14.01,2013-01-20 22:00:00,
2013-01-20 17:03:00,33.2,13.1,30.18,WNW,292,0.0,1.0,43,0.00,,---,0.00,VWS V14.01,2013-01-20 22:03:00,
2013-01-20 17:08:00,33.2,13.7,30.18,West,272,1.0,5.0,44,0.00,,---,0.00,VWS V14.01,2013-01-20 22:08:00,
2013-01-20 17:13:00,33.1,13.6,30.18,WSW,245,3.0,5.0,44,0.00,,---,0.00,VWS V14.01,2013-01-20 22:13:00,
2013-01-20 17:18:00,33.0,13.5,30.19,West,281,3.0,6.0,44,0.00,,---,0.00,VWS V14.01,2013-01-20 22:18:00,
2013-01-20 17:23:00,32.9,13.4,30.19,NW,312,2.0,6.0,44,0.00,,---,0.00,VWS V14.01,2013-01-20 22:23:00,
2013-01-20 17:28:00,32.9,13.9,30.19,WNW,297,4.0,6.0,45,0.00,,---,0.00,VWS V14.01,2013-01-20 22:28:00,
2013-01-20 17:30:00,32.8,13.3,30.19,NNW,334,3.0,6.0,44,0.00,,---,0.00,VWS V14.01,2013-01-20 22:30:00,
2013-01-20 17:33:00,32.7,13.7,30.19,WSW,255,4.0,7.0,45,0.00,,---,0.00,VWS V14.01,2013-01-20 22:33:00,
2013-01-20 17:38:00,32.6,13.6,30.20,WNW,297,4.0,7.0,45,0.00,,---,0.00,VWS V14.01,2013-01-20 22:38:00,
2013-01-20 17:43:00,32.4,13.4,30.20,West,277,5.0,7.0,45,0.00,,---,0.00,VWS V14.01,2013-01-20 22:43:00,
2013-01-20 17:48:00,32.3,13.9,30.20,NW,314,2.0,7.0,46,0.00,,---,0.00,VWS V14.01,2013-01-20 22:48:00,
2013-01-20 17:53:00,32.1,13.7,30.20,West,272,3.0,7.0,46,0.00,,---,0.00,VWS V14.01,2013-01-20 22:53:00,
2013-01-20 17:58:00,32.1,13.7,30.20,SW,232,1.0,7.0,46,0.00,,---,0.00,VWS V14.01,2013-01-20 22:58:00,
2013-01-20 18:00:00,32.1,14.2,30.20,West,266,4.0,7.0,47,0.00,,---,0.00,VWS V14.01,2013-01-20 23:00:00,
2013-01-20 18:03:00,32.1,13.7,30.20,WNW,285,2.0,5.0,46,0.00,,---,0.00,VWS V14.01,2013-01-20 23:03:00,
2013-01-20 18:08:00,32.0,14.1,30.20,West,264,2.0,5.0,47,0.00,,---,0.00,VWS V14.01,2013-01-20 23:08:00,
2013-01-20 18:13:00,32.0,14.1,30.21,WNW,295,4.0,6.0,47,0.00,,---,0.00,VWS V14.01,2013-01-20 23:13:00,
2013-01-20 18:18:00,31.9,14.4,30.21,WSW,247,5.0,7.0,48,0.00,,---,0.00,VWS V14.01,2013-01-20 23:18:00,
2013-01-20 18:23:00,31.8,14.8,30.21,West,273,5.0,7.0,49,0.00,,---,0.00,VWS V14.01,2013-01-20 23:23:00,
2013-01-20 18:28:00,31.8,14.8,30.20,WNW,283,5.0,8.0,49,0.00,,---,0.00,VWS V14.01,2013-01-20 23:28:00,
2013-01-20 18:30:00,31.7,14.7,30.20,West,278,5.0,8.0,49,0.00,,---,0.00,VWS V14.01,2013-01-20 23:30:00,
2013-01-20 18:33:00,31.7,14.7,30.20,West,273,4.0,5.0,49,0.00,,---,0.00,VWS V14.01,2013-01-20 23:33:00,
2013-01-20 18:38:00,31.6,15.1,30.20,NNW,333,4.0,5.0,50,0.00,,---,0.00,VWS V14.01,2013-01-20 23:38:00,
2013-01-20 18:43:00,31.5,14.6,30.20,WNW,301,4.0,5.0,49,0.00,,---,0.00,VWS V14.01,2013-01-20 23:43:00,
2013-01-20 18:48:00,31.4,14.5,30.20,WNW,293,3.0,5.0,49,0.00,,---,0.00,VWS V14.01,2013-01-20 23:48:00,
2013-01-20 18:53:00,31.2,13.8,30.20,West,272,5.0,7.0,48,0.00,,---,0.00,VWS V14.01,2013-01-20 23:53:00,
2013-01-20 18:58:00,31.1,13.7,30.20,NW,314,1.0,8.0,48,0.00,,---,0.00,VWS V14.01,2013-01-20 23:58:00,
2013-01-20 19:00:00,31.0,13.6,30.20,West,266,3.0,8.0,48,0.00,,---,0.00,VWS V14.01,2013-01-21 00:00:00,
2013-01-20 19:03:00,31.0,13.6,30.20,WNW,298,2.0,5.0,48,0.00,,---,0.00,VWS V14.01,2013-01-21 00:03:00,
2013-01-20 19:08:00,30.9,13.5,30.20,West,273,2.0,5.0,48,0.00,,---,0.00,VWS V14.01,2013-01-21 00:08:00,
2013-01-20 19:13:00,30.9,14.0,30.19,NW,318,1.0,5.0,49,0.00,,---,0.00,VWS V14.01,2013-01-21 00:13:00,
2013-01-20 19:19:00,30.7,13.8,30.19,WNW,289,1.0,5.0,49,0.00,,---,0.00,VWS V14.01,2013-01-21 00:19:00,
2013-01-20 19:24:00,30.6,13.7,30.19,WNW,291,1.0,5.0,49,0.00,,---,0.00,VWS V14.01,2013-01-21 00:24:00,
2013-01-20 19:29:00,30.5,14.1,30.19,WNW,295,1.0,5.0,50,0.00,,---,0.00,VWS V14.01,2013-01-21 00:29:00,
2013-01-20 19:30:00,30.5,14.1,30.19,NNW,335,0.0,5.0,50,0.00,,---,0.00,VWS V14.01,2013-01-21 00:30:00,
2013-01-20 19:34:00,30.4,14.4,30.19,WNW,297,2.0,2.0,51,0.00,,---,0.00,VWS V14.01,2013-01-21 00:34:00,
2013-01-20 19:39:00,30.3,13.9,30.19,West,279,2.0,3.0,50,0.00,,---,0.00,VWS V14.01,2013-01-21 00:39:00,
2013-01-20 19:44:00,30.2,14.3,30.19,WNW,285,0.0,3.0,51,0.00,,---,0.00,VWS V14.01,2013-01-21 00:44:00,
2013-01-20 19:49:00,30.0,14.5,30.19,SW,231,2.0,3.0,52,0.00,,---,0.00,VWS V14.01,2013-01-21 00:49:00,
2013-01-20 19:54:00,29.8,14.3,30.19,NW,307,0.0,3.0,52,0.00,,---,0.00,VWS V14.01,2013-01-21 00:54:00,
2013-01-20 19:59:00,29.7,14.2,30.19,WNW,292,1.0,3.0,52,0.00,,---,0.00,VWS V14.01,2013-01-21 00:59:00,
2013-01-20 20:00:00,29.6,14.1,30.19,NW,304,2.0,4.0,52,0.00,,---,0.00,VWS V14.01,2013-01-21 01:00:00,
2013-01-20 20:04:00,29.5,13.6,30.19,WNW,295,1.0,4.0,51,0.00,,---,0.00,VWS V14.01,2013-01-21 01:04:00,
2013-01-20 20:09:00,29.4,14.0,30.19,NW,314,1.0,4.0,52,0.00,,---,0.00,VWS V14.01,2013-01-21 01:09:00,
2013-01-20 20:14:00,29.3,13.9,30.19,WNW,298,0.0,4.0,52,0.00,,---,0.00,VWS V14.01,2013-01-21 01:14:00,
2013-01-20 20:19:00,29.2,14.2,30.18,WNW,301,0.0,4.0,53,0.00,,---,0.00,VWS V14.01,2013-01-21 01:19:00,
2013-01-20 20:24:00,29.2,14.2,30.19,WNW,294,2.0,4.0,53,0.00,,---,0.00,VWS V14.01,2013-01-21 01:24:00,
2013-01-20 20:28:00,29.2,13.8,30.19,NW,309,1.0,4.0,52,0.00,,---,0.00,VWS V14.01,2013-01-21 01:28:00,
2013-01-20 20:30:00,29.2,13.8,30.19,WNW,290,2.0,4.0,52,0.00,,---,0.00,VWS V14.01,2013-01-21 01:30:00,
2013-01-20 20:33:00,29.2,13.8,30.18,WNW,301,0.0,2.0,52,0.00,,---,0.00,VWS V14.01,2013-01-21 01:33:00,
2013-01-20 20:38:00,29.2,14.2,30.19,NW,307,0.0,3.0,53,0.00,,---,0.00,VWS V14.01,2013-01-21 01:38:00,
2013-01-20 20:43:00,29.1,14.5,30.19,NNE,13,0.0,3.0,54,0.00,,---,0.00,VWS V14.01,2013-01-21 01:43:00,
2013-01-20 20:48:00,29.0,14.0,30.18,West,266,0.0,3.0,53,0.00,,---,0.00,VWS V14.01,2013-01-21 01:48:00,
2013-01-20 20:53:00,29.0,14.4,30.19,WNW,295,2.0,3.0,54,0.00,,---,0.00,VWS V14.01,2013-01-21 01:53:00,
2013-01-20 20:58:00,29.0,14.4,30.19,West,275,1.0,3.0,54,0.00,,---,0.00,VWS V14.01,2013-01-21 01:58:00,
2013-01-20 21:00:00,28.9,14.4,30.18,WNW,287,0.0,3.0,54,0.00,,---,0.00,VWS V14.01,2013-01-21 02:00:00,
2013-01-20 21:03:00,28.9,14.4,30.19,WNW,284,1.0,3.0,54,0.00,,---,0.00,VWS V14.01,2013-01-21 02:03:00,
2013-01-20 21:08:00,28.8,14.7,30.18,WNW,302,1.0,3.0,55,0.00,,---,0.00,VWS V14.01,2013-01-21 02:08:00,
2013-01-20 21:13:00,28.7,15.0,30.18,WNW,292,1.0,3.0,56,0.00,,---,0.00,VWS V14.01,2013-01-21 02:13:00,
2013-01-20 21:18:00,28.6,14.9,30.19,WNW,290,3.0,3.0,56,0.00,,---,0.00,VWS V14.01,2013-01-21 02:18:00,
2013-01-20 21:23:00,28.6,14.9,30.18,NW,309,1.0,3.0,56,0.00,,---,0.00,VWS V14.01,2013-01-21 02:23:00,
2013-01-20 21:28:00,28.5,14.4,30.18,NW,313,1.0,3.0,55,0.00,,---,0.00,VWS V14.01,2013-01-21 02:28:00,
2013-01-20 21:30:00,27.1,13.9,30.18,WNW,294,0.0,3.0,57,0.00,,---,0.00,VWS V15.00,2013-01-21 02:30:00,
2013-01-20 21:33:00,28.5,14.8,30.18,West,281,0.0,2.0,56,0.00,,---,0.00,VWS V14.01,2013-01-21 02:33:00,
2013-01-20 21:38:00,28.3,14.6,30.18,WNW,298,1.0,2.0,56,0.00,,---,0.00,VWS V14.01,2013-01-21 02:38:00,
2013-01-20 21:43:00,28.2,14.5,30.18,WNW,290,0.0,2.0,56,0.00,,---,0.00,VWS V14.01,2013-01-21 02:43:00,
2013-01-20 21:48:00,28.0,14.8,30.18,WNW,290,0.0,2.0,57,0.00,,---,0.00,VWS V14.01,2013-01-21 02:48:00,
2013-01-20 21:53:00,27.8,14.6,30.18,WNW,283,0.0,2.0,57,0.00,,---,0.00,VWS V14.01,2013-01-21 02:53:00,
2013-01-20 21:58:00,27.7,14.5,30.18,WNW,300,0.0,2.0,57,0.00,,---,0.00,VWS V14.01,2013-01-21 02:58:00,
2013-01-20 22:00:00,27.0,14.2,30.18,WNW,302,0.0,3.0,58,0.00,,---,0.00,VWS V15.00,2013-01-21 03:00:00,
2013-01-20 22:03:00,27.5,14.7,30.18,WNW,299,0.0,1.0,58,0.00,,---,0.00,VWS V14.01,2013-01-21 03:03:00,
2013-01-20 22:08:00,27.4,15.0,30.18,WNW,290,1.0,2.0,59,0.00,,---,0.00,VWS V14.01,2013-01-21 03:08:00,
2013-01-20 22:13:00,27.3,14.1,30.18,WNW,290,2.0,3.0,57,0.00,,---,0.00,VWS V14.01,2013-01-21 03:13:00,
2013-01-20 22:18:00,27.3,13.7,30.18,West,280,0.0,3.0,56,0.00,,---,0.00,VWS V14.01,2013-01-21 03:18:00,
2013-01-20 22:23:00,27.2,14.0,30.18,WNW,297,1.0,3.0,57,0.00,,---,0.00,VWS V14.01,2013-01-21 03:23:00,
2013-01-20 22:28:00,27.1,13.9,30.18,WNW,294,1.0,3.0,57,0.00,,---,0.00,VWS V14.01,2013-01-21 03:28:00,
2013-01-20 22:30:00,27.2,14.0,30.18,WNW,298,0.0,4.0,57,0.00,,---,0.00,VWS V15.00,2013-01-21 03:30:00,
2013-01-20 22:33:00,27.1,13.9,30.18,WNW,288,1.0,3.0,57,0.00,,---,0.00,VWS V14.01,2013-01-21 03:33:00,
2013-01-20 22:38:00,27.0,13.8,30.18,WNW,298,1.0,3.0,57,0.00,,---,0.00,VWS V14.01,2013-01-21 03:38:00,
2013-01-20 22:43:00,27.0,13.8,30.18,WNW,299,1.0,3.0,57,0.00,,---,0.00,VWS V14.01,2013-01-21 03:43:00,
2013-01-20 22:48:00,27.0,13.8,30.18,NW,315,0.0,3.0,57,0.00,,---,0.00,VWS V14.01,2013-01-21 03:48:00,
2013-01-20 22:53:00,26.9,13.7,30.19,NW,315,0.0,3.0,57,0.00,,---,0.00,VWS V14.01,2013-01-21 03:53:00,
2013-01-20 22:58:00,27.0,13.8,30.18,WNW,300,0.0,3.0,57,0.00,,---,0.00,VWS V14.01,2013-01-21 03:58:00,
2013-01-20 23:00:00,27.1,13.9,30.18,West,269,0.0,4.0,57,0.00,,---,0.00,VWS V15.00,2013-01-21 04:00:00,
2013-01-20 23:03:00,27.0,13.8,30.18,WNW,302,1.0,1.0,57,0.00,,---,0.00,VWS V14.01,2013-01-21 04:03:00,
2013-01-20 23:08:00,27.1,14.3,30.18,WNW,284,0.0,2.0,58,0.00,,---,0.00,VWS V14.01,2013-01-21 04:08:00,
2013-01-20 23:14:00,27.2,14.4,30.18,NW,316,2.0,3.0,58,0.00,,---,0.00,VWS V14.01,2013-01-21 04:14:00,
2013-01-20 23:19:00,27.2,14.4,30.18,NW,325,2.0,3.0,58,0.00,,---,0.00,VWS V14.01,2013-01-21 04:19:00,
2013-01-20 23:24:00,27.3,14.5,30.18,West,273,1.0,3.0,58,0.00,,---,0.00,VWS V14.01,2013-01-21 04:24:00,
2013-01-20 23:29:00,27.2,14.4,30.18,West,276,3.0,4.0,58,0.00,,---,0.00,VWS V14.01,2013-01-21 04:29:00,
2013-01-20 23:30:00,26.8,14.4,30.17,NW,304,2.0,5.0,59,0.00,,---,0.00,VWS V15.00,2013-01-21 04:30:00,
2013-01-20 23:34:00,27.2,14.0,30.18,WNW,301,3.0,3.0,57,0.00,,---,0.00,VWS V14.01,2013-01-21 04:34:00,
2013-01-20 23:39:00,27.2,14.4,30.19,WSW,238,3.0,4.0,58,0.00,,---,0.00,VWS V14.01,2013-01-21 04:39:00,
2013-01-20 23:44:00,27.2,14.0,30.19,WNW,303,1.0,4.0,57,0.00,,---,0.00,VWS V14.01,2013-01-21 04:44:00,
2013-01-20 23:49:00,27.1,13.5,30.19,West,271,3.0,4.0,56,0.00,,---,0.00,VWS V14.01,2013-01-21 04:49:00,
2013-01-20 23:54:00,27.1,13.9,30.18,WNW,287,1.0,4.0,57,0.00,,---,0.00,VWS V14.01,2013-01-21 04:54:00,
2013-01-20 23:59:00,27.1,14.3,30.18,NW,309,0.0,4.0,58,0.00,,---,0.00,VWS V14.01,2013-01-21 04:59:00,